Location: *
(52.2090°N, 4.1550°W)
Time: 19:14:57
(UTC+00:00)

Cosmos 1140 Rocket - Pass Details

Date: 19 July 2019
Orbit: 744 x 768 km, 74.1° (Epoch: 16 August)

Event Time Altitude Azimuth Distance (km) Brightness Sun altitude
Exits shadow 22:26:56 - 201° (SSW) 2,666 5.9 -12.8°
Reaches altitude 10° 22:27:57 10° 201° (SSW) 2,273 5.6 -12.8°
Maximum altitude 22:33:06 85° 115° (ESE) 767 3.4 -13.2°
Drops below altitude 10° 22:38:21 10° 26° (NNE) 2,306 6.5 -13.5°
Sets 22:40:44 0° 26° (NNE) 3,239 7.3 -13.7°
